Regional Weather Roundup
Issued by NWS Portland, ME

Current Version | Previous Version | Text Only | Print | Product List | Glossary Off
Versions: 1 2 3 4 5 6 7 8 9 10 11 12 13 14 15 16 17 18 19 20 21 22 23 24 25 26 27 28 29 30 31 32 33 34 35 36 37 38 39 40 41 42 43 44 45 46 47 48 49 50
544 ASUS41 KGYX 222110 RWRGYX WEATHER ROUNDUP FOR MAINE AND NEW HAMPSHIRE NATIONAL WEATHER SERVICE GRAY ME 500 PM EDT MON OCT 22 2018 MEZ002-005-006-010-012-015-018-020-021-024-026-027-029-222200- MAINE CITY SKY/WX TMP DP RH WIND PRES REMARKS PORTLAND FAIR 47 22 37 W10 30.11R SANFORD MOCLDY 46 24 42 W6 30.12R BAR HARBOR FAIR 42 19 39 VRB5 30.09R WISCASSET FAIR 46 20 35 VRB3 30.11R ROCKLAND FAIR 44 21 40 W12 30.09R FRYEBURG FAIR 45 21 38 W5 30.09S LEWISTONAUBURN FAIR 45 19 35 W7 30.09S AUGUSTA FAIR 44 18 35 W8 30.09S WATERVILLE FAIR 43 19 38 W6 30.06S BANGOR FAIR 42 18 37 NW7 30.08R GREENVILLE N/A 33 16 49 NW10G17 30.01R MILLINOCKET FAIR 38 16 40 W12G21 30.06R HOULTON FAIR 38 16 40 W10 30.00 PRESQUE ISLE CLOUDY 36 16 44 W16G22 30.01R FRENCHVILLE CLOUDY 34 15 46 W17G26 29.96R CARIBOU CLOUDY 36 16 44 W7 29.98R $$ NHZ002-005-008-009-011-012-014-222200- NEW HAMPSHIRE CITY SKY/WX TMP DP RH WIND PRES REMARKS PORTSMOUTH MOCLDY 48 22 36 W5 30.12R ROCHESTER CLOUDY 47 24 40 NW9 30.12R NASHUA MOCLDY 48 29 47 CALM 30.13S MANCHESTER MOCLDY 49 25 39 S6 30.11S CONCORD FAIR 46 24 42 W5 30.11S PLYMOUTH MOCLDY 45 25 45 W5 30.09S BERLIN MOCLDY 41 20 43 VRB5 30.06S WHITEFIELD CLOUDY 40 24 53 W6 30.08S JAFFREY CLOUDY 45 27 49 W6 30.11S KEENE N/A 46 28 49 S8 30.12 LEBANON CLOUDY 46 29 51 VRB6 30.09S MT WASHINGTON SNOWSHWR 14 14 100 W53G61 N/A VSB 0 WCI -12 $$ VTZ005-007-008-222200- VERMONT CITY SKY/WX TMP DP RH WIND PRES REMARKS ST JOHNSBURY N/A 40 24 53 MISG 30.08S MONTPELIER CLOUDY 40 26 57 CALM 30.11S BURLINGTON MOCLDY 44 28 53 CALM 30.09F $$ MAZ007-012-024-CTZ003-RIZ002-NYZ038-NYZ072-222200- SOUTHERN NEW ENGLAND AND NY CITY SKY/WX TMP DP RH WIND PRES REMARKS BOSTON MOCLDY 50 28 42 SW10 30.15S WORCESTER CLOUDY 43 30 60 SW10 30.13S NANTUCKET CLOUDY 49 31 49 W10 30.18S PROVIDENCE MOCLDY 48 28 46 W10 30.17S HARTFORD CLOUDY 48 29 47 SW7 30.15S ALBANY CLOUDY 47 32 56 S10 30.12S NEW YORK CITY PTSUNNY 52 30 43 SW9 30.17S $$ ANZ081-ANZ082-ANZ150-NHZ014-MEZ023>029-222200- COASTAL MARINE OBSERVATIONS STATION/POSITION TIME TEMP WIND PRES WAVE AIR SEA DIR/SP/G HT/PER (UTC) (F) (DEG/KT/KT) (MB) (FT/S) MOUNT DESERT ROC 2100 43 240/ 18/ 21 1019.3R MATINICUS ROCK 2000 43 240/ 14/ 15 1019.0R ISLE OF SHOALS 2000 48 310/ 12/ 13 1019.8R JEFFREYS LEDGE 2006 55 N/A 3/11 $$ .............KEY.............. WCI - WIND CHILL TC - TEMPERATURE IN CELSIUS VSB - VISIBILITY IN MILES HX - HEAT INDEX FAIR- INDICATES FEW OR NO CLOUDS BELOW 12,000 FT, WITH NO SIGNIFICANT WEATHER AND/OR OBSTRUCTIONS TO VISIBILITY.

USA.gov is the U.S. government's official web portal to all federal, state and local government web resources and services.